FENGYUN 1C DEB

Satellite information

Favourite Embed

Satellite Type and Status

DEBRISIN ORBIT

Key statistics

Satellite FENGYUN 1C DEB at a glance.

Uptime

9555

Days in orbit

Revolutions

≈ 13.8

Per day

Orbit

SSO

Sun Synchronous Orbit

Inclination

98.4

Latest

Satellite identification and parameters

Extended collection of information and parameters for FENGYUN 1C DEB.

Object identification

Identified? True

Debris? True

Object name: FENGYUN 1C DEB

International designator: 1999-025AMJ

Object number (NORAD): 30603

Object ID (CCSDS): 30603

Country: PEOPLES REPUBLIC OF CHINA (PRC)

Current information (Y/N): Y

RCS size: SMALL

Orbital parameters

Period: 104.081 minutes

Inclination: 98.4245 deg

SMA: 7329.489 km

Apoapsis: 1084.436 km

Periapsis: 818.273 km

RAAN: 226.9889 deg

Eccentricy: 0.018157

Argument of periapsis: 281.0534 deg

Mean anomaly: 209.8723 deg

Mean motion: 13.83541538 rev/day

Mean motion (dot): 0.00001044 rev/day2

B* drag term: 0.00086505 1/REarth

Two-line elements (TLE)

Creation date: July 6, 2025, 10:46 p.m.

Reference frame: TEME

Reference center: EARTH

Epoch: July 6, 2025, 2:56 p.m. UTC

TLE line 0: 0 FENGYUN 1C DEB

TLE line 1: 1 30603U 99025AMJ 25187.62257499 .00001044 00000-0 86505-3 0 9990

TLE line 2: 2 30603 98.4245 226.9889 0181570 281.0534 209.8723 13.83541538927522

Live tracking on map

Real-time ground track for satellite FENGYUN 1C DEB.

In-orbit conjunctions

A list of the most updated potential collisions computed for object FENGYUN 1C DEB.

Target Orbit TCA Probability of collision Miss distance Type
MINOTAUR R/B SSO 2024-08-28 00:41:38 0.000920817 157.0 (m) ROCKET BODY

Associated space launch

Chinese polar orbiting meteorological satellite

FENGYUN 1C DEB was lifted into orbit during the mission ‘Long March 4B | Feng Yun 1C’, on board a Long March 4B space rocket.

The launch took place on May 10, 1999, 1:33 a.m. from Launch Complex 7.

For more information about the launch, click the button.

Launch to space Long March 4B | Feng Yun 1C
Long March 4B | Feng Yun 1C

Agency: N/A

Status: Launch Successful

Launch date: May 10, 1999, 1:33 a.m. UTC

Rocket: Long March 4B

Launch pad: Launch Complex 7

Location: Taiyuan Satellite Launch Center, People's Republic of China

...

Latest news about this satellite

There are no fresh news available about this satellite. Check back as we update our databases every day.


Newsletter sign-up

Weekly statistics, charts and insights to help you stay on top of the space industry.